When you browse on this site, cookies collect data to enhance your experience and personalize the content and advertising you see.
Visit our Privacy Policy to learn more. By continuing to use the site, you agree to this use of cookies and data.
  • Em Portugal
  • Lista de países
  • Para 7 dias
  • Temperatura da água
  • Mapa do tempo
  • Widgets de tempo
  • user-avatar
    Iniciar Sessão

    Previsão horária em Vanadzor

    Hoje, 7 Dezembro, Sábado

    Tempo Temperatura Precipitação Vento Pressão Humidade
    00:00 -4°C° 0 mm 0 m/s 637 mmHg 87%
    01:00 -4°C° 0 mm 0 m/s 637 mmHg 86%
    02:00 -4°C° 0 mm 0 m/s 637 mmHg 85%
    03:00 -4°C° 0 mm 0 m/s 637 mmHg 84%
    04:00 -4°C° 0 mm 0 m/s 636 mmHg 83%
    05:00 -4°C° 0 mm 0 m/s 636 mmHg 82%
    06:00 -4°C° 0 mm 0 m/s 636 mmHg 80%
    07:00 -3°C° 0 mm 0 m/s 636 mmHg 79%
    08:00 -2°C° 0 mm 0 m/s 637 mmHg 78%
    09:00 -1°C° 0 mm 0 m/s 637 mmHg 76%
    10:00 0°C° 0 mm 0 m/s 636 mmHg 75%
    11:00 +2°C° 0 mm 1 m/s 636 mmHg 74%
    12:00 +3°C° 0 mm 1 m/s 636 mmHg 73%
    13:00 +3°C° 0 mm 1 m/s 635 mmHg 75%
    14:00 +3°C° 0 mm 1 m/s 635 mmHg 77%
    15:00 +3°C° 0 mm 1 m/s 634 mmHg 80%
    16:00 +1°C° 0 mm 1 m/s 634 mmHg 82%
    17:00 0°C° 0 mm 1 m/s 634 mmHg 84%
    18:00 -2°C° 0 mm 0 m/s 634 mmHg 86%
    19:00 -2°C° 0 mm 0 m/s 634 mmHg 85%
    20:00 -2°C° 0 mm 0 m/s 633 mmHg 84%
    21:00 -3°C° 0 mm 0 m/s 633 mmHg 84%
    22:00 -3°C° 0 mm 0 m/s 633 mmHg 82%
    23:00 -3°C° 0 mm 0 m/s 633 mmHg 81%

    Amanhã, 8 Dezembro, Domingo

    Tempo Temperatura Precipitação Vento Pressão Humidade
    00:00 -1°C° 0 mm 1 m/s 633 mmHg 80%
    01:00 -2°C° 0 mm 0 m/s 632 mmHg 80%
    02:00 -2°C° 0 mm 0 m/s 632 mmHg 79%
    03:00 -2°C° 0 mm 0 m/s 632 mmHg 79%
    04:00 -2°C° 0 mm 0 m/s 631 mmHg 78%
    05:00 -2°C° 0 mm 0 m/s 631 mmHg 77%
    06:00 -2°C° 0 mm 0 m/s 631 mmHg 76%
    07:00 0°C° 0 mm 1 m/s 631 mmHg 75%
    08:00 0°C° 0 mm 1 m/s 631 mmHg 74%
    09:00 +1°C° 0 mm 1 m/s 632 mmHg 73%
    10:00 +2°C° 0 mm 1 m/s 631 mmHg 72%
    11:00 +3°C° 0 mm 1 m/s 631 mmHg 71%
    12:00 +4°C° 0 mm 1 m/s 631 mmHg 70%
    13:00 +4°C° 0 mm 1 m/s 630 mmHg 72%
    14:00 +4°C° 0 mm 1 m/s 630 mmHg 74%
    15:00 +4°C° 0 mm 1 m/s 630 mmHg 77%
    16:00 +3°C° 0 mm 1 m/s 629 mmHg 77%
    17:00 +2°C° 0 mm 1 m/s 629 mmHg 78%
    18:00 +1°C° 0 mm 1 m/s 629 mmHg 78%
    19:00 +1°C° 0 mm 1 m/s 630 mmHg 78%
    20:00 +1°C° 0 mm 1 m/s 630 mmHg 78%
    21:00 -2°C° 0 mm 2 m/s 630 mmHg 78%
    22:00 -2°C° 0 mm 2 m/s 630 mmHg 78%
    23:00 -2°C° 0 mm 2 m/s 630 mmHg 79%

    Depois de amanhã, 9 Dezembro, Segunda-feira

    Tempo Temperatura Precipitação Vento Pressão Humidade
    00:00 -3°C° 0 mm 2 m/s 630 mmHg 79%
    01:00 -3°C° 0 mm 2 m/s 630 mmHg 80%
    02:00 -3°C° 0 mm 2 m/s 630 mmHg 80%
    03:00 -3°C° 0 mm 2 m/s 630 mmHg 80%
    04:00 -4°C° 0 mm 2 m/s 630 mmHg 80%
    05:00 -4°C° 0 mm 2 m/s 630 mmHg 80%
    06:00 -4°C° 0 mm 2 m/s 630 mmHg 80%
    07:00 -3°C° 0 mm 2 m/s 631 mmHg 79%
    08:00 -3°C° 0 mm 2 m/s 631 mmHg 77%
    09:00 -2°C° 0 mm 2 m/s 632 mmHg 76%
    10:00 -1°C° 0 mm 2 m/s 632 mmHg 74%
    11:00 +1°C° 0 mm 2 m/s 632 mmHg 72%
    12:00 +2°C° 0 mm 2 m/s 632 mmHg 70%
    13:00 +2°C° 0 mm 2 m/s 632 mmHg 71%
    14:00 +3°C° 0 mm 1 m/s 631 mmHg 73%
    15:00 +2°C° 0 mm 1 m/s 631 mmHg 75%
    16:00 +1°C° 0 mm 1 m/s 631 mmHg 76%
    17:00 0°C° 0 mm 1 m/s 631 mmHg 78%
    18:00 -3°C° 0 mm 2 m/s 631 mmHg 80%
    19:00 -3°C° 0 mm 2 m/s 632 mmHg 78%
    20:00 -4°C° 0 mm 2 m/s 632 mmHg 77%
    21:00 -4°C° 0 mm 2 m/s 632 mmHg 76%
    22:00 -4°C° 0 mm 2 m/s 632 mmHg 75%
    23:00 -4°C° 0 mm 2 m/s 632 mmHg 75%

    10 Dezembro, Terça-feira

    Tempo Temperatura Precipitação Vento Pressão Humidade
    00:00 -4°C° 0 mm 2 m/s 632 mmHg 75%
    01:00 -4°C° 0 mm 2 m/s 632 mmHg 75%
    02:00 -4°C° 0 mm 2 m/s 632 mmHg 75%
    03:00 -5°C° 0 mm 2 m/s 632 mmHg 74%
    04:00 -5°C° 0 mm 2 m/s 632 mmHg 74%
    05:00 -5°C° 0 mm 2 m/s 632 mmHg 74%
    06:00 -5°C° 0 mm 2 m/s 632 mmHg 75%
    07:00 -4°C° 0 mm 2 m/s 632 mmHg 74%
    08:00 -4°C° 0 mm 2 m/s 633 mmHg 73%
    09:00 -3°C° 0 mm 2 m/s 633 mmHg 72%
    10:00 0°C° 0 mm 1 m/s 633 mmHg 70%
    11:00 +1°C° 0 mm 1 m/s 633 mmHg 69%
    12:00 +2°C° 0 mm 1 m/s 633 mmHg 67%
    13:00 +2°C° 0 mm 1 m/s 633 mmHg 69%
    14:00 +2°C° 0 mm 1 m/s 632 mmHg 72%
    15:00 +2°C° 0 mm 1 m/s 632 mmHg 74%
    16:00 +1°C° 0 mm 1 m/s 632 mmHg 76%
    17:00 0°C° 0 mm 1 m/s 632 mmHg 79%
    18:00 -2°C° 0 mm 1 m/s 632 mmHg 81%
    19:00 -2°C° 0 mm 1 m/s 632 mmHg 79%
    20:00 -2°C° 0 mm 1 m/s 632 mmHg 78%
    21:00 -2°C° 0 mm 1 m/s 632 mmHg 76%
    22:00 -2°C° 0 mm 1 m/s 632 mmHg 76%
    23:00 -4°C° 0 mm 2 m/s 632 mmHg 76%

    11 Dezembro, Quarta-feira

    Tempo Temperatura Precipitação Vento Pressão Humidade
    00:00 -4°C° 0 mm 2 m/s 632 mmHg 76%
    01:00 -4°C° 0 mm 2 m/s 632 mmHg 76%
    02:00 -4°C° 0 mm 2 m/s 632 mmHg 76%
    03:00 -4°C° 0 mm 2 m/s 632 mmHg 76%
    04:00 -4°C° 0 mm 2 m/s 632 mmHg 76%
    05:00 -4°C° 0 mm 2 m/s 632 mmHg 76%
    06:00 -5°C° 0 mm 2 m/s 632 mmHg 76%
    07:00 -4°C° 0 mm 2 m/s 632 mmHg 75%
    08:00 -3°C° 0 mm 2 m/s 632 mmHg 74%
    09:00 -2°C° 0 mm 2 m/s 633 mmHg 73%
    10:00 -1°C° 0 mm 2 m/s 633 mmHg 71%
    11:00 +1°C° 0 mm 2 m/s 632 mmHg 69%
    12:00 +2°C° 0 mm 2 m/s 632 mmHg 68%
    13:00 +2°C° 0 mm 2 m/s 632 mmHg 70%
    14:00 +2°C° 0 mm 2 m/s 632 mmHg 72%
    15:00 +2°C° 0 mm 1 m/s 631 mmHg 74%
    16:00 -1°C° 0 mm 2 m/s 631 mmHg 75%
    17:00 -2°C° 0 mm 2 m/s 631 mmHg 77%
    18:00 -3°C° 0 mm 2 m/s 631 mmHg 79%
    19:00 -3°C° 0 mm 2 m/s 631 mmHg 77%
    20:00 -4°C° 0 mm 2 m/s 631 mmHg 76%
    21:00 -4°C° 0 mm 2 m/s 631 mmHg 74%
    22:00 -4°C° 0 mm 2 m/s 631 mmHg 74%
    23:00 -4°C° 0 mm 2 m/s 631 mmHg 74%

    12 Dezembro, Quinta-feira

    Tempo Temperatura Precipitação Vento Pressão Humidade
    00:00 -4°C° 0 mm 2 m/s 631 mmHg 74%
    01:00 -4°C° 0 mm 2 m/s 630 mmHg 75%
    02:00 -4°C° 0 mm 2 m/s 630 mmHg 76%
    03:00 -4°C° 0 mm 2 m/s 630 mmHg 76%
    04:00 -5°C° 0 mm 2 m/s 630 mmHg 77%
    05:00 -5°C° 0 mm 2 m/s 630 mmHg 77%
    06:00 -5°C° 0 mm 2 m/s 630 mmHg 78%
    07:00 -4°C° 0 mm 2 m/s 630 mmHg 77%
    08:00 -4°C° 0 mm 2 m/s 630 mmHg 76%
    09:00 -3°C° 0 mm 2 m/s 630 mmHg 75%
    10:00 -2°C° 0 mm 2 m/s 630 mmHg 73%
    11:00 -1°C° 0 mm 2 m/s 630 mmHg 72%
    12:00 +1°C° 0 mm 2 m/s 629 mmHg 70%
    13:00 +1°C° 0 mm 2 m/s 629 mmHg 71%
    14:00 -1°C° 0 mm 2 m/s 629 mmHg 73%
    15:00 -1°C° 0 mm 2 m/s 629 mmHg 75%
    16:00 -2°C° 0 mm 2 m/s 628 mmHg 76%
    17:00 -3°C° 0 mm 2 m/s 628 mmHg 77%
    18:00 -4°C° 0 mm 2 m/s 628 mmHg 79%
    19:00 -5°C° 0 mm 2 m/s 628 mmHg 77%
    20:00 -5°C° 0 mm 2 m/s 628 mmHg 76%
    21:00 -5°C° 0 mm 2 m/s 628 mmHg 74%
    22:00 -5°C° 0 mm 2 m/s 628 mmHg 75%
    23:00 -5°C° 0 mm 2 m/s 628 mmHg 75%
    Mostrar mais